QPF
0.03 0.02 0.01 0.01 0.00 0.00 0.00 0.00 0.00 0.00 0.00 0.00 0.00 0.00 0.00 0.00 0.00 0.00 0.00 0.00 0.00 0.00 0.00 0.00 0.00 0.00 0.00 0.00 0.00 0.00 0.00 0.00 0.00 0.00 0.00 0.00 0.00 0.00 0.00 0.00 0.00 0.00 0.01
0.00 0.00 0.00 0.00 0.00 0.00 0.00 0.00 0.00 0.00 0.00 0.00 0.00 0.00 0.00 0.00 0.00 0.00 0.00 0.00 0.00 0.00 0.00 0.00 0.00 0.00 0.00 0.00 0.00 0.00 0.00 0.00 0.00 0.00 0.00 0.00 0.01 0.00 0.00 0.00 0.00 0.00 0.00
0.02 0.09 0.01 0.06 0.08 0.05 0.01 0.00 0.00 0.00 0.00 0.00 0.00 0.00 0.00 0.00 0.00 0.00 0.00 0.00 0.00 0.00 0.00 0.00 0.00 0.00 0.00 0.00 0.00 0.00 0.00 0.00 0.00 0.00 0.00 0.00 0.00 0.00 0.00 0.00 0.00 0.00 0.00
0.00 0.04 0.06 0.01 0.10 0.19 0.08 0.00 0.00 0.00 0.00 0.00 0.00 0.00 0.00 0.00 0.00 0.00 0.00 0.00 0.00 0.00 0.00 0.00 0.00 0.00 0.00 0.00 0.00 0.00 0.00 0.00 0.00 0.00 0.00 0.00 0.00 0.00 0.00 0.00 0.00 0.00 0.00
0.00 0.00 0.00 0.03 0.08 0.10 0.07 0.04 0.00 0.00 0.00 0.00 0.00 0.00 0.00 0.00 0.00 0.00 0.00 0.00 0.00 0.00 0.00 0.00 0.00 0.00 0.00 0.00 0.00 0.00 0.00 0.00 0.00 0.00 0.00 0.00 0.00 0.00 0.00 0.00 0.00 0.00 0.00
0.01 0.01 0.01 0.06 0.13 0.07 0.07 0.05 0.01 0.00 0.00 0.00 0.00 0.00 0.00 0.00 0.00 0.00 0.00 0.00 0.00 0.00 0.00 0.00 0.00 0.00 0.00 0.00 0.00 0.00 0.00 0.00 0.00 0.00 0.00 0.00 0.00 0.00 0.00 0.00 0.00 0.00 0.00
0.03 0.10 0.16 0.41 0.29 0.19 0.07 0.03 0.01 0.00 0.00 0.00 0.00 0.01 0.00 0.00 0.00 0.00 0.00 0.00 0.00 0.00 0.00 0.00 0.00 0.00 0.00 0.00 0.00 0.00 0.00 0.00 0.00 0.00 0.00 0.00 0.00 0.00 0.00 0.00 0.00 0.00 0.00
0.14 0.39 0.32 0.44 0.40 0.31 0.16 0.04 0.01 0.00 0.00 0.00 0.01 0.02 0.00 0.00 0.00 0.00 0.00 0.00 0.00 0.00 0.00 0.00 0.00 0.00 0.00 0.00 0.00 0.00 0.00 0.00 0.00 0.00 0.00 0.00 0.00 0.00 0.00 0.00 0.00 0.00 0.00
0.14 0.31 0.17 0.14 0.05 0.06 0.11 0.20 0.13 0.06 0.00 0.01 0.03 0.03 0.01 0.00 0.00 0.00 0.00 0.00 0.00 0.00 0.00 0.00 0.00 0.00 0.00 0.00 0.00 0.00 0.00 0.00 0.00 0.00 0.00 0.00 0.00 0.00 0.00 0.00 0.00 0.00 0.00
0.14 0.18 0.13 0.03 0.01 0.00 0.00 0.03 0.07 0.17 0.03 0.04 0.07 0.08 0.03 0.00 0.00 0.00 0.00 0.00 0.00 0.00 0.00 0.00 0.00 0.00 0.00 0.00 0.00 0.00 0.00 0.00 0.00 0.00 0.00 0.00 0.00 0.00 0.00 0.00 0.00 0.00 0.00
0.07 0.08 0.07 0.06 0.00 0.00 0.00 0.00 0.00 0.14 0.11 0.05 0.03 0.04 0.02 0.00 0.00 0.00 0.00 0.00 0.00 0.00 0.00 0.00 0.00 0.00 0.00 0.00 0.00 0.00 0.00 0.00 0.00 0.00 0.00 0.00 0.00 0.00 0.00 0.00 0.00 0.00 0.00
0.01 0.01 0.00 0.00 0.00 0.00 0.00 0.00 0.00 0.01 0.04 0.05 0.04 0.05 0.03 0.01 0.00 0.00 0.00 0.00 0.00 0.00 0.00 0.00 0.00 0.00 0.00 0.00 0.00 0.00 0.00 0.00 0.00 0.00 0.00 0.00 0.00 0.00 0.00 0.00 0.00 0.00 0.00
0.00 0.00 0.00 0.00 0.00 0.00 0.00 0.00 0.00 0.00 0.00 0.01 0.03 0.02 0.01 0.00 0.00 0.00 0.00 0.00 0.00 0.00 0.00 0.00 0.00 0.00 0.00 0.00 0.00 0.00 0.00 0.00 0.00 0.00 0.00 0.00 0.00 0.00 0.00 0.00 0.00 0.00 0.00
0.00 0.00 0.00 0.00 0.00 0.00 0.00 0.00 0.00 0.00 0.00 0.00 0.00 0.00 0.00 0.00 0.00 0.00 0.00 0.00 0.00 0.00 0.00 0.00 0.00 0.00 0.00 0.00 0.00 0.00 0.00 0.00 0.00 0.00 0.00 0.00 0.00 0.00 0.00 0.00 0.00 0.00 0.00
0.00 0.00 0.00 0.00 0.00 0.00 0.00 0.00 0.00 0.00 0.00 0.00 0.00 0.00 0.00 0.00 0.00 0.00 0.00 0.00 0.00 0.00 0.00 0.00 0.00 0.00 0.00 0.00 0.00 0.00 0.00 0.00 0.00 0.00 0.00 0.00 0.00 0.00 0.00 0.00 0.00 0.00 0.00
0.00 0.00 0.00 0.00 0.00 0.00 0.00 0.00 0.00 0.00 0.00 0.00 0.00 0.00 0.00 0.00 0.00 0.00 0.00 0.00 0.00 0.00 0.00 0.00 0.00 0.00 0.00 0.00 0.00 0.00 0.00 0.00 0.00 0.00 0.00 0.00 0.00 0.00 0.00 0.00 0.00 0.00 0.00
0.00 0.00 0.00 0.00 0.00 0.00 0.00 0.00 0.00 0.00 0.00 0.00 0.00 0.00 0.00 0.00 0.00 0.00 0.00 0.00 0.00 0.00 0.00 0.00 0.00 0.00 0.00 0.00 0.00 0.00 0.00 0.00 0.00 0.00 0.00 0.00 0.00 0.00 0.00 0.00 0.00 0.00 0.00
0.00 0.00 0.00 0.00 0.00 0.00 0.00 0.00 0.00 0.00 0.00 0.00 0.00 0.00 0.00 0.00 0.00 0.00 0.00 0.00 0.00 0.00 0.00 0.00 0.00 0.00 0.00 0.00 0.00 0.00 0.00 0.00 0.00 0.00 0.00 0.00 0.00 0.00 0.00 0.00 0.00 0.00 0.00
0.00 0.00 0.00 0.00 0.00 0.00 0.00 0.00 0.00 0.00 0.00 0.00 0.00 0.00 0.00 0.00 0.00 0.00 0.00 0.00 0.00 0.00 0.00 0.00 0.00 0.00 0.00 0.00 0.00 0.00 0.00 0.00 0.00 0.00 0.00 0.00 0.00 0.00 0.00 0.00 0.00 0.00 0.00
0.00 0.00 0.00 0.00 0.00 0.00 0.00 0.00 0.00 0.00 0.00 0.00 0.00 0.00 0.00 0.00 0.00 0.00 0.00 0.00 0.00 0.00 0.00 0.00 0.00 0.00 0.00 0.00 0.00 0.00 0.00 0.00 0.00 0.00 0.00 0.00 0.00 0.00 0.00 0.00 0.00 0.00 0.00
0.00 0.00 0.00 0.00 0.00 0.00 0.00 0.00 0.00 0.00 0.00 0.00 0.00 0.00 0.00 0.00 0.00 0.00 0.00 0.00 0.00 0.00 0.00 0.00 0.00 0.00 0.00 0.00 0.00 0.00 0.00 0.00 0.00 0.00 0.00 0.00 0.00 0.00 0.00 0.00 0.00 0.00 0.00
0.00 0.00 0.00 0.00 0.00 0.00 0.00 0.00 0.00 0.00 0.00 0.00 0.00 0.00 0.00 0.00 0.00 0.00 0.00 0.00 0.00 0.00 0.00 0.01 0.00 0.00 0.00 0.00 0.00 0.00 0.00 0.00 0.00 0.00 0.00 0.00 0.00 0.00 0.00 0.00 0.00 0.00 0.00
0.00 0.00 0.00 0.00 0.00 0.00 0.00 0.00 0.00 0.00 0.00 0.00 0.00 0.00 0.00 0.00 0.00 0.00 0.00 0.00 0.00 0.00 0.00 0.00 0.00 0.00 0.00 0.00 0.00 0.00 0.00 0.00 0.00 0.00 0.00 0.00 0.00 0.00 0.00 0.00 0.00 0.00 0.00
0.00 0.00 0.00 0.00 0.00 0.00 0.00 0.00 0.00 0.00 0.00 0.00 0.00 0.00 0.00 0.00 0.00 0.00 0.00 0.00 0.01 0.00 0.01 0.02 0.00 0.00 0.00 0.00 0.00 0.00 0.00 0.00 0.00 0.00 0.00 0.00 0.00 0.00 0.00 0.00 0.00 0.00 0.00
0.00 0.00 0.00 0.00 0.00 0.00 0.00 0.00 0.00 0.00 0.00 0.00 0.00 0.00 0.00 0.00 0.00 0.00 0.00 0.01 0.00 0.01 0.03 0.03 0.02 0.02 0.01 0.01 0.00 0.00 0.00 0.00 0.00 0.00 0.00 0.00 0.00 0.00 0.00 0.00 0.00 0.00 0.00
0.00 0.00 0.00 0.00 0.00 0.00 0.00 0.00 0.00 0.00 0.00 0.00 0.00 0.00 0.00 0.00 0.00 0.00 0.00 0.01 0.01 0.03 0.02 0.02 0.02 0.02 0.01 0.01 0.01 0.00 0.00 0.00 0.00 0.00 0.00 0.00 0.00 0.00 0.00 0.00 0.00 0.00 0.00
MSLP
1012.66 1012.39 1011.85 1011.44 1012.96 1014.27 1014.53 1014.33 1014.24 1014.28 1013.84 1013.96 1014.41 1014.55 1014.84 1015.53 1016.05 1016.50 1016.88 1017.10 1017.45 1017.90 1018.35 1018.51 1018.74 1018.84 1019.07 1019.32 1019.65 1019.84 1020.11 1020.08 1020.40 1020.42 1020.39 1020.54 1020.49 1020.56 1020.68 1020.64 1020.68 1020.63 1020.54
1012.19 1012.66 1012.27 1012.19 1012.02 1014.13 1014.34 1014.66 1014.62 1014.84 1014.72 1014.61 1014.57 1014.94 1015.08 1015.61 1016.43 1016.87 1017.18 1017.36 1017.95 1018.33 1018.60 1018.85 1019.17 1019.46 1019.62 1019.98 1020.15 1020.31 1020.63 1020.79 1020.90 1020.98 1020.94 1020.89 1020.90 1020.99 1021.13 1021.30 1021.32 1021.26 1021.08
1012.51 1012.78 1013.09 1013.17 1013.18 1013.85 1014.82 1014.49 1014.70 1015.08 1015.25 1015.36 1015.16 1015.08 1015.15 1015.71 1016.30 1017.16 1017.71 1017.77 1018.23 1018.58 1018.99 1019.31 1019.64 1019.94 1020.26 1020.45 1020.71 1020.87 1020.93 1021.25 1021.29 1021.44 1021.48 1021.75 1021.60 1021.59 1021.72 1021.63 1021.75 1021.75 1021.76
1011.96 1012.60 1012.83 1013.30 1012.73 1013.34 1014.69 1014.81 1014.62 1014.97 1015.11 1015.26 1015.18 1015.18 1015.47 1015.84 1016.31 1017.05 1017.77 1018.18 1018.53 1018.86 1019.24 1019.69 1020.00 1020.32 1020.66 1020.87 1020.86 1020.93 1021.39 1021.72 1021.80 1022.10 1021.97 1022.23 1022.12 1022.22 1022.33 1022.28 1022.32 1022.26 1022.33
1012.58 1012.54 1012.19 1012.73 1013.59 1012.41 1012.85 1015.11 1014.70 1015.07 1015.47 1015.83 1015.72 1015.55 1015.78 1016.08 1016.40 1017.22 1017.70 1018.31 1018.90 1019.16 1019.53 1020.14 1020.53 1020.83 1020.92 1021.06 1021.27 1021.42 1021.79 1022.01 1022.27 1022.49 1022.64 1022.82 1022.86 1022.98 1022.96 1022.93 1022.98 1023.05 1023.08
1011.92 1011.76 1011.97 1011.75 1012.80 1013.15 1013.18 1014.00 1014.72 1014.87 1015.26 1015.40 1016.10 1016.30 1016.42 1016.39 1016.79 1017.65 1018.05 1018.45 1019.23 1019.70 1020.09 1020.39 1020.88 1021.09 1021.12 1021.33 1021.71 1022.12 1022.28 1022.51 1022.71 1023.06 1023.22 1023.23 1023.35 1023.43 1023.54 1023.61 1023.71 1023.75 1023.88
1011.85 1011.81 1012.26 1013.11 1013.61 1013.35 1013.08 1014.12 1014.22 1014.52 1015.20 1015.42 1016.34 1016.64 1016.96 1016.80 1017.19 1017.96 1018.58 1018.84 1019.58 1020.16 1020.56 1020.78 1021.13 1021.32 1021.50 1021.78 1022.13 1022.53 1022.72 1022.82 1023.06 1023.58 1023.71 1023.85 1023.86 1023.97 1024.13 1024.22 1024.27 1024.46 1024.66
1011.68 1012.38 1012.88 1013.21 1014.35 1013.70 1013.04 1013.57 1013.68 1014.16 1014.99 1015.81 1016.46 1017.00 1017.33 1017.21 1017.70 1018.34 1018.95 1019.29 1019.82 1020.35 1020.82 1021.06 1021.44 1021.84 1021.95 1022.23 1022.52 1022.90 1023.03 1023.17 1023.49 1024.01 1024.33 1024.42 1024.46 1024.49 1024.64 1024.86 1024.94 1025.10 1025.25
1012.17 1012.47 1012.73 1013.15 1013.50 1015.22 1014.31 1012.24 1013.76 1013.73 1014.70 1015.58 1016.75 1017.38 1017.67 1017.67 1018.30 1018.72 1019.36 1019.69 1020.10 1020.71 1021.06 1021.36 1021.63 1022.04 1022.28 1022.52 1022.84 1023.30 1023.38 1023.60 1023.85 1024.26 1024.55 1024.89 1024.86 1024.92 1025.17 1025.22 1025.51 1025.64 1025.75
1012.49 1012.77 1013.12 1013.89 1014.77 1012.97 1015.12 1014.44 1015.73 1015.42 1014.95 1015.97 1016.90 1017.59 1018.12 1018.02 1018.91 1019.26 1019.93 1019.93 1020.38 1021.02 1021.34 1021.74 1021.87 1022.11 1022.47 1022.54 1022.86 1023.42 1023.80 1024.13 1024.27 1024.60 1024.89 1025.16 1025.21 1025.35 1025.44 1025.51 1025.94 1026.17 1026.43
1013.58 1013.17 1012.78 1013.24 1013.53 1014.05 1013.92 1016.96 1015.52 1016.90 1016.38 1016.42 1017.10 1017.73 1018.29 1018.56 1019.18 1019.90 1020.37 1020.29 1020.50 1021.14 1021.75 1021.87 1022.16 1022.39 1022.70 1023.10 1023.35 1023.65 1024.05 1024.53 1024.70 1024.83 1025.02 1025.11 1025.32 1025.58 1025.97 1026.09 1026.29 1026.41 1026.66
1013.76 1014.18 1014.07 1013.64 1013.90 1014.39 1015.13 1016.09 1016.44 1017.26 1017.22 1016.82 1017.23 1017.65 1018.29 1019.00 1019.40 1020.00 1020.70 1020.65 1020.86 1021.24 1022.01 1022.18 1022.43 1022.62 1023.07 1023.74 1023.91 1024.01 1024.59 1024.87 1025.07 1025.22 1025.26 1025.45 1025.53 1025.74 1026.15 1026.41 1026.62 1026.98 1026.93
1014.46 1014.60 1014.74 1014.74 1014.60 1014.76 1015.27 1016.20 1017.35 1016.07 1016.68 1016.97 1017.60 1018.09 1018.76 1019.33 1020.03 1020.34 1020.97 1020.80 1021.42 1021.49 1022.25 1022.44 1023.03 1023.36 1023.64 1024.04 1024.27 1024.46 1024.87 1025.19 1025.24 1025.45 1025.52 1025.64 1025.77 1026.09 1026.39 1026.73 1026.86 1027.21 1027.35
1014.52 1014.49 1014.97 1015.12 1015.31 1015.75 1016.29 1016.80 1016.74 1016.31 1016.86 1016.84 1017.22 1018.29 1019.05 1019.75 1020.42 1020.69 1020.86 1021.10 1021.38 1022.15 1022.36 1022.97 1023.27 1023.86 1024.16 1024.27 1024.45 1024.66 1025.25 1025.41 1025.52 1025.58 1025.62 1025.76 1025.86 1026.19 1026.52 1026.90 1027.17 1027.41 1027.49
1014.89 1014.93 1015.02 1015.28 1015.50 1015.85 1016.40 1016.44 1016.33 1016.39 1016.31 1016.90 1017.75 1018.50 1018.95 1019.58 1020.46 1020.65 1021.13 1021.04 1021.45 1022.30 1022.50 1023.04 1023.64 1024.15 1024.32 1024.25 1024.65 1024.96 1025.46 1025.63 1025.71 1025.81 1025.84 1025.88 1026.02 1026.33 1026.71 1026.90 1027.09 1027.40 1027.54
1015.26 1015.14 1015.02 1015.48 1015.62 1015.74 1016.10 1015.81 1015.90 1016.27 1016.73 1017.37 1018.13 1018.59 1018.82 1019.53 1020.29 1020.89 1020.95 1021.27 1021.81 1022.24 1022.38 1022.91 1023.49 1023.77 1024.24 1024.39 1024.80 1024.99 1025.42 1025.65 1025.85 1025.93 1025.97 1026.06 1026.18 1026.42 1026.66 1026.86 1027.08 1027.27 1027.41
1015.37 1015.38 1015.19 1015.28 1015.58 1015.90 1016.38 1016.46 1016.70 1016.82 1016.99 1017.50 1018.19 1018.52 1018.86 1019.61 1020.22 1020.57 1021.17 1021.47 1021.97 1022.23 1022.34 1022.96 1023.48 1023.81 1024.32 1024.51 1024.78 1024.86 1025.27 1025.48 1025.96 1026.04 1026.02 1026.24 1026.27 1026.43 1026.47 1026.70 1026.87 1027.00 1027.18
1015.58 1015.69 1015.75 1015.77 1016.03 1016.28 1016.81 1017.09 1017.16 1017.13 1017.17 1017.68 1018.43 1018.90 1019.04 1019.60 1019.98 1020.80 1020.95 1021.59 1021.80 1021.99 1022.36 1023.00 1023.40 1023.96 1024.31 1024.67 1024.77 1024.96 1024.98 1025.34 1025.63 1025.99 1026.08 1026.38 1026.62 1026.68 1026.56 1026.70 1026.63 1026.84 1027.02
1015.69 1015.90 1016.09 1016.24 1016.58 1016.96 1017.27 1017.14 1017.48 1017.71 1017.66 1018.17 1018.55 1018.92 1018.90 1019.40 1020.16 1020.44 1020.84 1021.03 1021.38 1021.81 1022.25 1022.68 1023.24 1023.59 1024.29 1024.57 1024.68 1024.92 1025.25 1025.28 1025.37 1025.59 1026.04 1026.38 1026.53 1026.60 1026.62 1026.51 1026.84 1026.75 1026.90
1015.92 1016.03 1016.21 1016.43 1016.63 1017.06 1017.39 1017.62 1017.84 1018.05 1017.81 1018.13 1018.19 1018.21 1018.78 1019.36 1019.88 1020.22 1020.40 1020.75 1020.94 1021.68 1022.22 1022.58 1022.93 1023.32 1023.60 1023.96 1024.41 1024.72 1024.90 1025.00 1025.21 1025.32 1025.49 1025.81 1026.14 1026.31 1026.40 1026.45 1026.65 1026.80 1026.80
1015.85 1016.18 1016.32 1016.53 1016.89 1017.16 1017.53 1017.86 1018.13 1018.03 1017.97 1018.10 1018.46 1018.54 1019.16 1019.53 1019.75 1019.95 1019.95 1020.25 1020.79 1021.40 1021.68 1022.10 1022.79 1023.19 1023.56 1023.77 1024.34 1024.88 1024.82 1024.97 1025.12 1025.19 1025.19 1025.49 1025.66 1025.74 1026.13 1026.39 1026.57 1026.77 1026.80
1015.51 1016.12 1016.55 1016.76 1017.10 1017.31 1017.35 1017.56 1017.83 1017.86 1018.13 1018.26 1018.13 1018.61 1019.08 1019.29 1019.36 1019.31 1019.50 1020.04 1020.53 1021.17 1021.59 1021.95 1022.41 1023.06 1023.36 1023.64 1024.15 1024.74 1025.12 1025.34 1025.14 1025.29 1025.63 1025.46 1025.53 1025.59 1025.83 1025.95 1026.07 1026.44 1026.47
1015.23 1015.51 1015.96 1016.37 1016.62 1016.90 1017.06 1017.34 1017.70 1018.05 1018.24 1018.22 1018.29 1018.27 1018.73 1018.73 1018.68 1018.84 1019.22 1019.70 1019.87 1020.62 1021.21 1021.51 1021.92 1022.42 1022.94 1023.41 1023.64 1024.21 1025.01 1025.06 1025.26 1025.08 1025.23 1025.15 1025.14 1025.50 1025.42 1025.52 1025.61 1025.83 1025.92
1014.40 1014.86 1015.34 1015.89 1016.40 1016.74 1017.08 1017.28 1017.52 1017.57 1017.67 1017.62 1017.76 1018.22 1018.30 1018.35 1018.57 1018.60 1018.76 1019.17 1019.50 1019.97 1020.42 1020.94 1021.29 1021.93 1022.55 1023.33 1023.96 1024.25 1024.51 1025.01 1025.38 1025.53 1025.25 1025.00 1024.98 1025.08 1024.82 1025.09 1025.20 1025.28 1025.39
1013.98 1014.41 1014.96 1015.56 1015.93 1015.98 1016.23 1016.50 1016.86 1016.99 1017.14 1017.20 1017.54 1017.73 1017.85 1018.04 1018.09 1018.24 1018.46 1018.63 1018.97 1019.46 1019.90 1020.45 1020.93 1021.56 1022.02 1022.57 1023.05 1024.28 1024.81 1025.07 1025.09 1025.40 1025.45 1025.22 1024.91 1024.70 1024.51 1024.70 1024.84 1025.13 1025.10
1013.14 1013.86 1014.32 1014.81 1015.11 1015.52 1015.80 1016.18 1016.38 1016.62 1016.83 1016.94 1017.17 1017.57 1017.68 1017.76 1017.87 1017.84 1018.05 1018.32 1018.70 1019.15 1019.55 1019.88 1020.46 1021.20 1021.60 1022.02 1022.65 1023.46 1023.66 1024.27 1024.72 1024.94 1025.34 1025.13 1025.20 1024.70 1024.29 1024.15 1024.43 1024.55 1024.66
Thickness
5703 5707 5714 5719 5705 5692 5691 5698 5704 5706 5714 5716 5713 5713 5713 5707 5704 5702 5699 5698 5695 5691 5688 5688 5686 5686 5685 5682 5679 5677 5674 5674 5670 5669 5669 5667 5668 5667 5665 5665 5663 5663 5663
5702 5699 5704 5704 5708 5690 5690 5689 5693 5694 5699 5704 5708 5705 5706 5703 5697 5694 5692 5692 5687 5685 5683 5682 5680 5679 5678 5675 5673 5671 5668 5666 5664 5662 5662 5662 5662 5661 5660 5658 5657 5657 5657
5695 5693 5693 5693 5696 5686 5682 5686 5689 5687 5689 5692 5698 5701 5702 5699 5695 5687 5684 5685 5682 5679 5676 5675 5674 5673 5671 5669 5666 5663 5664 5659 5659 5658 5658 5654 5655 5655 5653 5654 5652 5651 5651
5694 5689 5689 5688 5696 5690 5663 5677 5685 5685 5689 5691 5695 5697 5695 5694 5692 5687 5682 5679 5676 5674 5672 5669 5668 5667 5664 5661 5661 5660 5658 5655 5655 5652 5654 5650 5650 5648 5646 5646 5645 5645 5644
5686 5687 5690 5686 5679 5694 5692 5666 5678 5677 5678 5679 5684 5689 5689 5689 5689 5684 5681 5676 5670 5669 5667 5662 5661 5660 5659 5657 5656 5655 5652 5651 5649 5647 5646 5644 5642 5639 5640 5640 5639 5637 5637
5686 5690 5692 5692 5681 5680 5675 5666 5671 5668 5671 5677 5674 5675 5678 5681 5681 5675 5674 5672 5665 5660 5658 5656 5654 5655 5654 5651 5650 5646 5645 5645 5644 5641 5639 5638 5635 5634 5633 5633 5632 5631 5629
5685 5682 5680 5674 5672 5677 5678 5669 5667 5670 5667 5670 5666 5668 5668 5673 5671 5667 5664 5664 5658 5653 5650 5649 5648 5648 5647 5644 5643 5640 5640 5640 5639 5635 5634 5631 5629 5628 5627 5626 5626 5624 5621
5679 5666 5667 5665 5655 5632 5663 5664 5668 5667 5661 5658 5658 5659 5658 5664 5662 5659 5656 5656 5653 5649 5644 5642 5641 5641 5640 5635 5633 5632 5634 5634 5633 5629 5625 5624 5622 5622 5621 5619 5618 5616 5614
5667 5660 5654 5648 5651 5635 5636 5658 5656 5662 5657 5656 5650 5649 5651 5654 5652 5652 5649 5649 5647 5642 5638 5635 5635 5634 5635 5629 5626 5624 5627 5627 5626 5623 5620 5617 5617 5617 5615 5614 5611 5609 5607
5658 5653 5648 5637 5629 5645 5634 5630 5635 5631 5646 5645 5645 5642 5642 5647 5643 5643 5640 5643 5641 5635 5632 5629 5629 5629 5628 5626 5623 5620 5620 5620 5620 5618 5615 5611 5610 5609 5609 5609 5604 5601 5597
5645 5646 5646 5642 5640 5635 5640 5617 5633 5614 5630 5638 5638 5636 5637 5640 5637 5632 5631 5636 5634 5628 5624 5624 5622 5622 5623 5618 5616 5615 5614 5613 5613 5613 5611 5609 5607 5605 5601 5599 5597 5596 5592
5643 5636 5638 5641 5635 5629 5623 5627 5622 5616 5620 5630 5631 5634 5634 5631 5630 5629 5624 5626 5625 5622 5617 5615 5613 5615 5614 5610 5608 5611 5608 5607 5606 5606 5606 5604 5603 5601 5596 5593 5590 5586 5586
5632 5630 5632 5629 5630 5631 5627 5620 5613 5636 5629 5629 5626 5624 5625 5625 5623 5621 5617 5619 5616 5617 5611 5608 5605 5603 5603 5603 5604 5605 5603 5602 5602 5600 5599 5598 5597 5593 5590 5587 5584 5580 5577
5629 5631 5625 5626 5622 5617 5614 5612 5619 5627 5626 5629 5628 5621 5620 5617 5614 5612 5610 5613 5613 5607 5605 5600 5599 5595 5595 5597 5600 5601 5597 5596 5597 5597 5595 5593 5592 5588 5585 5580 5576 5573 5571
5621 5621 5622 5619 5620 5617 5611 5613 5619 5625 5632 5628 5621 5615 5614 5613 5608 5608 5605 5609 5605 5599 5599 5596 5593 5590 5591 5596 5595 5594 5592 5592 5593 5592 5592 5588 5587 5582 5578 5576 5573 5568 5564
5613 5614 5616 5611 5610 5614 5612 5619 5623 5623 5621 5616 5611 5612 5612 5608 5604 5601 5603 5602 5597 5594 5595 5592 5590 5592 5591 5591 5590 5590 5587 5588 5588 5588 5586 5583 5580 5575 5572 5570 5566 5563 5560
5613 5607 5606 5610 5608 5607 5604 5606 5607 5611 5613 5610 5607 5609 5607 5603 5601 5599 5596 5594 5590 5588 5590 5588 5587 5588 5587 5587 5586 5588 5587 5586 5581 5580 5581 5577 5576 5572 5570 5565 5562 5559 5555
5608 5603 5602 5601 5602 5600 5597 5598 5599 5603 5606 5605 5600 5599 5602 5597 5596 5592 5592 5586 5585 5586 5588 5586 5586 5586 5585 5584 5585 5584 5585 5584 5580 5576 5575 5571 5568 5564 5563 5559 5558 5553 5550
5606 5602 5598 5597 5594 5592 5589 5593 5594 5595 5597 5594 5595 5593 5596 5594 5588 5588 5586 5585 5586 5587 5589 5588 5587 5586 5581 5581 5582 5582 5579 5578 5579 5575 5571 5567 5564 5561 5558 5554 5548 5546 5542
5602 5600 5596 5596 5595 5592 5591 5590 5590 5589 5596 5593 5594 5595 5592 5588 5585 5586 5585 5586 5590 5588 5588 5587 5586 5585 5584 5583 5582 5580 5578 5577 5574 5573 5569 5565 5560 5556 5552 5549 5544 5539 5535
5604 5600 5598 5595 5591 5589 5586 5585 5584 5587 5589 5589 5587 5589 5586 5585 5583 5586 5589 5588 5588 5588 5589 5588 5583 5582 5581 5581 5578 5573 5575 5572 5569 5567 5565 5561 5556 5554 5548 5543 5537 5532 5527
5609 5603 5599 5595 5590 5590 5593 5591 5584 5587 5588 5588 5594 5591 5586 5586 5587 5589 5591 5591 5591 5589 5587 5585 5583 5581 5579 5577 5574 5569 5566 5565 5565 5560 5554 5553 5552 5549 5544 5539 5533 5526 5522
5613 5610 5606 5602 5599 5597 5596 5595 5592 5590 5588 5593 5593 5594 5590 5592 5593 5593 5592 5591 5592 5588 5585 5585 5583 5580 5577 5574 5572 5566 5558 5560 5554 5555 5551 5549 5546 5540 5537 5533 5529 5522 5517
5618 5615 5612 5607 5602 5599 5598 5597 5594 5595 5595 5597 5596 5590 5593 5591 5591 5594 5596 5595 5595 5591 5589 5586 5583 5579 5576 5569 5563 5559 5554 5549 5542 5542 5540 5538 5535 5532 5531 5525 5520 5514 5508
5620 5618 5614 5610 5607 5607 5605 5603 5600 5599 5598 5599 5595 5595 5594 5591 5594 5595 5594 5595 5594 5592 5590 5586 5581 5577 5572 5567 5563 5549 5543 5539 5536 5531 5528 5527 5527 5527 5522 5517 5510 5502 5497
5625 5620 5617 5613 5612 5610 5608 5604 5602 5600 5599 5598 5597 5593 5593 5594 5593 5593 5592 5592 5591 5590 5587 5584 5579 5574 5569 5565 5558 5549 5545 5539 5533 5527 5521 5520 5517 5517 5513 5508 5501 5494 5487